Simultaneous Nadir Overpasses (SNOs) Predictions

Prediction of SNOs between GOES-16 and TERRA Satellite Orbit:

Table of predicted SNOs for the next 14.0 days since TLE Epoch: 10/21/2023
Index Date Time (GOES-16) GOES-16 Lat,Lon TERRA Lat,Lon Distance(km) Time Diff (sec)
1 10/22/2023 14:45:35 -0.05, -75.22 -0.89, -71.19 457.66 80
2 10/23/2023 03:05:51 0.05, -75.21 -0.12, -76.13 103.67 80
3 10/25/2023 02:46:36 0.05, -75.22 0.73, -72.12 353.38 80
4 10/25/2023 15:06:42 -0.05, -75.24 0.30, -77.01 200.26 80
5 10/27/2023 14:52:45 -0.05, -75.27 -0.51, -72.99 257.92 80
6 10/28/2023 03:13:01 0.05, -75.26 -0.53, -77.92 302.62 80
7 10/30/2023 02:53:44 0.04, -75.29 0.33, -73.91 156.38 80
8 10/30/2023 15:13:51 -0.04, -75.31 0.70, -78.80 396.98 80
9 11/01/2023 14:59:54 -0.04, -75.34 -0.18, -74.79 62.86 80
10 11/02/2023 03:20:09 0.04, -75.34 -0.88, -79.71 497.13 80
